Find Starlink 5757

NORAD ID: 55580 Int'l Des: 2023-020 Owner: SPXS Country: US Constellation: starlink operational
LEOCIRCULAR

Live-Position

3D-Globus wird geladen...

Über Starlink 5757

Beschreibung wird geladen...

Nächste Überflüge

Passes for default location (London). Set your location on the main map for personalized predictions.

Höhenverlauf

Loading altitude history...

Zweizeiliger Elementsatz

1 55580U 23020M 26126.39188204 -.00001024 00000-0 -27707-4 0 9998
2 55580 43.0028 13.6735 0000980 261.1376 98.9365 15.27571635178031
Epoch: 6. Mai 2026 • Age: 11 hours

Aktueller Status

Höhe 495.6 km
Geschwindigkeit 7.62 km/s
Subsatellitenpunkt -42.81°S, 125.07°E
Startdatum 12. Feb. 2023
Alter 3.2 years
Typ internet

Technische Details

Klassifizierung Payload
Masse 305.00 kg
Trockenmasse 290.00 kg
Gesamtmasse 305.00 kg
Länge 0.20 m
Durchmesser 2.80 m
Spannweite 9.00 m
Form Box + pan
Hersteller SPXS
Bus-Typ Starlink
Phasenstatus In Orbit
Besitzer/Staat SPXS/US

Most Searched